FW9475 Weather Reports


time (UTC)temp
C
wind
direction
speed
KPH
gust
KPH
rain 1hr
cm
rain 24hr
cm
rain mn
cm
humidity
%
barometer
mb
20260510201553 10 0 0.0 4.8 0.00 0.00 0.00 60 1020.9
20260510200050 10 34 0.0 8.0 0.00 0.00 0.00 59 1020.9
20260510194555 10 0 0.0 4.8 0.00 0.00 0.00 56 1021.0
20260510193052 11 0 0.0 9.7 0.00 0.00 0.00 54 1020.9
20260510191556 11 0 1.6 12.9 0.00 0.00 0.00 53 1021.0
20260510184554 12 27 1.6 14.5 0.00 0.00 0.00 51 1021.2
20260510183053 13 44 4.8 19.3 0.00 0.00 0.00 50 1021.1
20260510181555 12 0 0.0 17.7 0.00 0.00 0.00 51 1021.1
20260510180103 13 43 1.6 17.7 0.00 0.00 0.00 49 1021.1
20260510174603 13 32 3.2 12.9 0.00 0.00 0.00 48 1021.0
20260510173054 14 68 6.4 16.1 0.00 0.00 0.00 47 1021.2
20260510171559 14 70 0.0 16.1 0.00 0.00 0.00 49 1021.4
20260510170058 15 58 1.6 14.5 0.00 0.00 0.00 46 1021.5
20260510164605 14 162 4.8 27.4 0.00 0.00 0.00 49 1021.7
20260510163137 14 10 1.6 17.7 0.00 0.00 0.00 49 1021.8
20260510161555 15 40 1.6 12.9 0.00 0.00 0.00 50 1021.9
20260510160101 15 88 1.6 17.7 0.00 0.00 0.00 50 1022.2
20260510154600 15 183 1.6 16.1 0.00 0.00 0.00 50 1022.2
20260510153102 15 55 1.6 16.1 0.00 0.00 0.00 51 1022.3
20260510151625 15 18 3.2 17.7 0.00 0.00 0.00 50 1022.5
20260510150100 15 102 3.2 11.3 0.00 0.00 0.00 52 1022.6
20260510144614 15 196 3.2 19.3 0.00 0.00 0.00 52 1022.8
20260510143105 15 65 4.8 25.7 0.00 0.00 0.00 54 1023.0
20260510141558 14 50 3.2 24.1 0.00 0.00 0.00 56 1023.1
20260510140053 13 311 3.2 19.3 0.00 0.00 0.00 57 1023.3
20260510134557 14 230 0.0 12.9 0.00 0.00 0.00 59 1023.2
20260510133053 14 78 3.2 19.3 0.00 0.00 0.00 58 1023.4
20260510131555 14 333 3.2 16.1 0.00 0.00 0.00 58 1023.6
20260510130054 13 38 4.8 20.9 0.00 0.00 0.00 63 1023.6
20260510124601 12 73 4.8 25.7 0.00 0.00 0.00 64 1023.7
20260510123056 12 0 3.2 25.7 0.00 0.00 0.00 66 1023.9
20260510121554 12 176 3.2 20.9 0.00 0.00 0.00 67 1024.0
20260510120049 11 292 4.8 20.9 0.00 0.00 0.00 68 1024.2
20260510114549 11 86 8.0 27.4 0.00 0.00 0.00 68 1024.5
20260510113051 12 182 4.8 17.7 0.00 0.00 0.00 68 1024.5
20260510111548 12 74 4.8 29.0 0.00 0.00 0.00 69 1024.8
20260510110052 12 35 6.4 22.5 0.00 0.00 0.00 68 1024.9
20260510104551 12 49 6.4 22.5 0.00 0.00 0.00 70 1025.1
20260510103049 11 123 3.2 17.7 0.00 0.00 0.00 73 1025.3
20260510101554 11 333 3.2 17.7 0.00 0.00 0.00 74 1025.4
20260510100109 10 55 3.2 12.9 0.00 0.00 0.00 76 1025.4
20260510094600 10 233 1.6 11.3 0.00 0.00 0.00 77 1025.5
20260510093058 10 193 4.8 16.1 0.00 0.00 0.00 78 1025.6
20260510091550 10 0 3.2 12.9 0.00 0.00 0.00 79 1025.7
20260510090056 9 55 4.8 17.7 0.00 0.00 0.00 80 1025.7
20260510084611 9 63 1.6 9.7 0.00 0.00 0.00 80 1025.8
20260510083053 8 219 3.2 12.9 0.00 0.00 0.00 81 1025.9
20260510081555 8 53 3.2 8.0 0.00 0.00 0.00 81 1026.1
20260510080048 8 80 0.0 12.9 0.00 0.00 0.00 82 1025.9
20260510074549 8 169 3.2 22.5 0.00 0.00 0.00 82 1025.8
20260510073100 9 196 1.6 12.9 0.00 0.00 0.00 82 1025.7
20260510071551 9 19 4.8 19.3 0.00 0.00 0.00 82 1025.7
20260510070055 9 31 1.6 12.9 0.00 0.00 0.00 82 1025.6
20260510064551 9 44 3.2 19.3 0.00 0.00 0.00 83 1025.5
20260510063051 9 5 6.4 20.9 0.00 0.00 0.00 83 1025.5
20260510061551 9 28 1.6 16.1 0.00 0.00 0.00 84 1025.4
20260510060053 9 53 1.6 14.5 0.00 0.00 0.00 84 1025.3
20260510054551 9 187 4.8 20.9 0.00 0.00 0.00 83 1025.3
20260510053051 9 20 0.0 6.4 0.00 0.00 0.00 83 1025.3
20260510051550 9 24 3.2 14.5 0.00 0.00 0.00 83 1025.3
20260510050056 9 19 1.6 8.0 0.00 0.00 0.00 83 1025.4
20260510044558 9 11 1.6 8.0 0.00 0.00 0.00 83 1025.4
20260510043110 9 46 0.0 14.5 0.00 0.00 0.00 84 1025.4
20260510041554 9 0 0.0 8.0 0.00 0.00 0.00 84 1025.5
20260510040057 8 0 1.6 17.7 0.00 0.00 0.00 84 1025.6
20260510034552 8 48 0.0 9.7 0.00 0.00 0.00 85 1025.6
20260510033115 9 33 1.6 4.8 0.00 0.00 0.00 85 1025.7
20260510031558 8 69 1.6 8.0 0.00 0.00 0.00 85 1025.9
20260510030059 8 55 1.6 6.4 0.00 0.00 0.00 85 1025.8
20260510024549 8 0 1.6 16.1 0.00 0.00 0.00 84 1025.9
20260510023049 9 40 3.2 19.3 0.00 0.00 0.00 84 1025.9
20260510021546 8 43 6.4 19.3 0.00 0.00 0.00 83 1025.9
20260510020053 8 53 4.8 22.5 0.00 0.00 0.00 83 1026.0
20260510014551 9 13 1.6 19.3 0.00 0.00 0.00 84 1025.8
20260510013050 9 15 4.8 14.5 0.00 0.00 0.00 84 1025.9
20260510011552 9 21 4.8 17.7 0.00 0.00 0.00 84 1025.9
20260510010050 9 24 3.2 11.3 0.00 0.00 0.00 84 1026.1
20260510004550 9 192 3.2 19.3 0.00 0.00 0.00 84 1025.8
20260510003047 9 227 3.2 12.9 0.00 0.00 0.00 84 1025.8
20260510001550 9 231 1.6 8.0 0.00 0.00 0.00 84 1025.6
20260510000104 10 242 3.2 17.7 0.00 0.00 0.00 84 1025.3
20260509234557 10 223 1.6 12.9 0.00 0.00 0.00 83 1025.3
20260509233050 10 0 3.2 14.5 0.00 0.00 0.00 83 1025.2
20260509231550 10 54 3.2 19.3 0.00 0.00 0.00 82 1025.4
20260509230043 11 186 6.4 25.7 0.00 0.00 0.00 81 1025.3
20260509224549 11 90 1.6 24.1 0.00 0.00 0.00 80 1025.2
20260509223100 11 340 9.7 29.0 0.00 0.00 0.00 79 1025.1
20260509221550 11 30 4.8 16.1 0.00 0.00 0.00 78 1025.2
20260509220049 11 44 3.2 14.5 0.00 0.00 0.00 77 1025.2
20260509214550 12 81 3.2 17.7 0.00 0.00 0.00 77 1025.2
20260509213051 12 0 1.6 6.4 0.00 0.00 0.00 77 1025.1
20260509211551 13 0 0.0 4.8 0.00 0.00 0.00 77 1024.8
20260509210059 13 0 1.6 4.8 0.00 0.00 0.00 76 1024.6
20260509204553 14 0 1.6 6.4 0.00 0.00 0.00 75 1024.6
20260509203050 14 109 0.0 12.9 0.00 0.00 0.00 73 1024.4